sat.trackr.live / text

‹ back to catalog

YUNYAO-1 20

NORAD 58760 · 2024-009C

PAYLOAD ACTIVE UNKNOWN

§ Identity

Operator
Country
PRC
Launch date
2024-01-11
Launch site
YSLA
Launch vehicle
Mass (kg)
RCS (m²)

External: N2YO · Heavens-Above · Gunter

§ Orbital elements

Epoch: 2026-05-25T08:46:53.885280Z

Period
94.88 min
Inclination
49.9775°
Eccentricity
0.0004134
Mean motion
15.17705935 rev/d
Perigee alt
509.9 km
Apogee alt
515.6 km
Semi-major
6,890.9 km
B*
5.4357e-4
RAAN
277.1520°
Arg perigee
208.3268°
Mean anomaly
151.7460°
Rev number
13,122

§ Raw data

YUNYAO-1 201 58760U 24009C   26145.36590145  .00010821  00000+0  54357-3 0  99902 58760  49.9775 277.1520 0004134 208.3268 151.7460 15.17705935131220

JSON: /api/v1/satellites/58760 · /tle

For live sub-satellite position, see the globe view (requires WebGL).

§ Visibility from observer

Set your observer location to see the next 7 days of passes ≥ 10°. The values pass through the URL so the page stays shareable.

No JS? Fill the form by hand. The geolocation button needs JavaScript.